Retour au catalogue

STARLINK-36846

ActifCommunicationsSSO
NORAD 67894·PAYLOAD·🇺🇸 United States

Lancé Feb 21, 2026 depuis Vandenberg Space Force Base

Loading…

Prochains Passages (prochaines 24 heures)

TLE

FraisSource: CelesTrak SupGP

Époque: Sep 15, 2026, 02:40 UTC

1 67894C 26035R   26258.11159722  .00071435  00000+0  22179-2 0  2581
2 67894  97.2847 189.9837 0001723  98.0926 266.1863 15.33396210    11

Suivez STARLINK-36846 en temps réel avec AllMySat

Download on the App Store